Regional Weather Roundup
Issued by NWS

Home | Current Version | Previous Version | Text Only | Print | Product List | Glossary Off
Versions: 1 2 3 4 5 6 7 8 9 10 11 12 13 14 15 16 17 18 19 20 21 22 23 24 25 26 27

000
ASUS45 KTFX 161610
RWRMT
MONTANA REGIONAL WEATHER ROUNDUP
NATIONAL WEATHER SERVICE GREAT FALLS MT
1000 AM MDT WED AUG 16 2017

NOTE: "FAIR" INDICATES FEW OR NO CLOUDS BELOW 12000 FEET WITH NO
SIGNIFICANT WEATHER AND/OR OBSTRUCTIONS TO VISIBILITY.

MTZ001>007-043-161700-
WEST OF THE DIVIDE

CITY           SKY/WX    TMP DP  RH WIND       PRES   REMARKS
KALISPELL      SUNNY     64  45  49 VRB3      30.02S
MISSOULA       SUNNY     59  35  40 CALM      30.07S
BUTTE          SUNNY     59  32  36 CALM      30.14S
MULLAN PASS    SUNNY     58  33  39 CALM      30.15R
ANACONDA         N/A     61  36  39 N3        30.11S
DEER LODGE       N/A     61  36  39 CALM      30.13S
EUREKA           N/A     63  39  42 MISG      30.01S
HAMILTON         N/A     63  39  42 CALM      30.08F
LIBBY            N/A     63  37  39 CALM      30.01F
PLAINS           N/A     62  37  39 CALM      30.04
RONAN            N/A     70  39  32 S3        30.07S
$$

MTZ008-052>055-161700-
SOUTHWEST MONTANA

CITY           SKY/WX    TMP DP  RH WIND       PRES   REMARKS
BOZEMAN        SUNNY     66  43  43 CALM      30.09R
DILLON         SUNNY     61  42  49 SW8       30.11S
W YELLOWSTONE  CLOUDY    52  41  66 CALM      30.22S
ENNIS          SUNNY     64  43  45 S10       30.16F
THREE FORKS      N/A     62  41  46 CALM      30.06S
$$

MTZ009-010-012-014-046-048-049-054-161700-
EAST SLOPES AND CENTRAL MONTANA

CITY           SKY/WX    TMP DP  RH WIND       PRES   REMARKS
CUT BANK       SUNNY     73  36  25 W12       29.98S
GREAT FALLS    SUNNY     70  29  21 SW13      30.00S
MALMSTROM AFB  SUNNY     70  33  25 W8        29.99F
HELENA         SUNNY     67  38  34 N7        30.06F
AUGUSTA          N/A     72  30  21 W13G20    30.02S
BOWMANS CRNR     N/A     65  28  24 S10       30.02S
CHOTEAU          N/A     73  36  25 W6        30.01S
CONRAD           N/A     76  38  25 SW9       30.00R
FAIRFIELD        N/A     71  33  24 SW7       29.99F
POWER            N/A     69  32  25 SW9       29.99S
RAYNESFORD       N/A     69  33  26 CALM      30.01F
ULM              N/A     71  30  21 SW8       30.00S
$$

MTZ011-013-016-021-045-047-050-051-161700-
NORTH CENTRAL MONTANA

CITY           SKY/WX    TMP DP  RH WIND       PRES   REMARKS
HAVRE          SUNNY     66  40  38 W7        29.94S
LEWISTOWN      SUNNY     68  36  30 W5        30.01S
N BAR RANCH      N/A     73  34  23 NW14G21   30.03S
CHINOOK          N/A     63  43  48 W7        29.93S
DENTON           N/A     67  35  30 S3        29.95F
GEYSER           N/A     72  32  23 W15G21    29.99F
GRASS RANGE      N/A     72  33  23 W20       29.95S
JUDITH GAP       N/A     73  34  24 N9        30.03S
WINIFRED         N/A     66  35  32 W13       29.98R
$$

MTZ017>020-022>027-061-062-161700-
NORTHEAST MONTANA

CITY           SKY/WX    TMP DP  RH WIND       PRES   REMARKS
GLASGOW        SUNNY     72  52  49 SE7       29.92F
JORDAN           N/A     78  45  30 SW9       29.93F
SIDNEY         SUNNY     66  61  84 S3        29.96S
WOLF POINT     SUNNY     69  55  60 E7        29.94F
MALTA          MOSUNNY   70  50  49 NE6       29.92F
PLENTYWOOD       N/A     70  54  56 CALM      29.96S
POPLAR           N/A     70  57  64 CALM      29.95S
SCOBEY           N/A     66  51  58 CALM      29.95
$$

MTZ028>42-056>058-161700-
SOUTHCENTRAL AND SOUTHEAST MONTANA

CITY           SKY/WX    TMP DP  RH WIND       PRES   REMARKS
BAKER          SUNNY     71  52  50 SE6       30.00F
BILLINGS       MOSUNNY   70  48  45 SW13      30.00F
LIVINGSTON     SUNNY     71  42  35 NW3       30.05F
MILES CITY     SUNNY     71  47  42 S7        29.97S
BIG TIMBER     SUNNY     68  43  40 W9        30.07F
EKALAKA          N/A     72  48  42 N3        30.00
FORSYTH          N/A     73  46  38 CALM      29.96S
HARLOWTON        N/A     71  33  25 MISG      30.03S
LAUREL           N/A     73  47  39 S6        30.00F
$$

REGIONAL REPORTS...DAKOTAS

CITY           SKY/WX    TMP DP  RH WIND       PRES   REMARKS
WILLISTON      MOSUNNY   68  60  75 S3        29.96S
MINOT          CLOUDY    61  59  93 VRB3      29.94R FOG
DICKINSON      SUNNY     70  61  73 VRB3      29.97S
BEACH            N/A     72  59  64 CALM      30.01F
CROSBY           N/A     70  50  49 CALM      29.96S
TIOGA            N/A     68  57  68 E3        29.98S
BISMARCK       CLOUDY    66  60  81 N8        29.94S
GRAND FORKS    LGT RAIN  65  65 100 E5        29.86R FOG
FARGO          CLOUDY    67  65  93 SE5       29.84S FOG
BUFFALO SD       N/A     72  56  57 VRB3      29.95R
RAPID CITY     CLOUDY    67  56  67 N20       30.01S
$$

REGIONAL REPORTS...WYOMING/IDAHO/WASHINGTON

CITY           SKY/WX    TMP DP  RH WIND       PRES   REMARKS
GILLETTE       SUNNY     71  41  33 VRB3      30.06S
SHERIDAN       SUNNY     71  45  39 E5        30.03S
BUFFALO WY     SUNNY     72  34  24 SE6       30.09R
CODY           SUNNY     70  40  33 SW12      30.10S
YELLOWSTONE LA   N/A     52  44  74 E3        30.29S
IDAHO FALLS    SUNNY     62  47  57 VRB3      30.13R
SALMON         SUNNY     59  45  59 CALM      30.10F
BOISE          SUNNY     70  39  32 CALM      30.03R
SPOKANE        MOSUNNY   66  39  37 S8        30.02R
$$

REGIONAL REPORTS...ALBERTA

CITY           SKY/WX    TMP DP  RH WIND       PRES   REMARKS
$$

REGIONAL REPORTS...SASKATCHEWAN

CITY           SKY/WX    TMP DP  RH WIND       PRES   REMARKS
$$




USA.gov is the U.S. government's official web portal to all federal, state and local government web resources and services.